This demonstration page uses our WeatherBlox Daily Observations layout. Learn more.

Left ArrowRight Arrow

Hourly Observations for January 4, 2019

Temp ( °F °C ) Dew Point ( °F °C ) Humidity (%) Winds ( mph kmh ) Pressure ( in mb ) Visibility ( mi km ) Precip ( " mm )
12:59 am 00:59 Cloudy 45 7.2 43 6.1 93 93 Calm 30.09 1019 8 13 0.00 0.00
1:59 am 01:59 Mostly Cloudy 44 6.7 42 5.6 93 93 ESE 5 7 30.09 1019 8 13 0.00 0.00
2:16 am 02:16 Partly Cloudy 45 7.2 42 5.6 90 90 ESE 6 9 30.09 1019 8 13 0.00 0.00
2:59 am 02:59 Mostly Clear 44 6.7 41 5 89 89 Calm 30.07 1018 8 13 0.00 0.00
3:59 am 03:59 Mostly Cloudy with Mist and Fog 43 6.1 41 5 93 93 Calm 30.06 1018 6 10 0.00 0.00
4:59 am 04:59 Mostly Cloudy with Mist and Fog 41 5 40 4.4 96 96 Calm 30.06 1018 6 10 0.00 0.00
5:59 am 05:59 Mostly Cloudy with Mist and Fog 42 5.6 41 5 96 96 Calm 30.07 1018 6 10 0.00 0.00
6:59 am 06:59 Clear with Mist and Fog 42 5.6 41 5 96 96 ESE 3 6 30.08 1019 4 6 0.00 0.00
7:59 am 07:59 Cloudy with Mist and Fog 44 6.7 43 6.1 96 96 Calm 30.09 1019 5 8 0.00 0.00
8:59 am 08:59 Cloudy with Mist and Fog 48 8.9 44 6.7 86 86 ESE 7 11 30.08 1019 5 8 0.00 0.00
9:59 am 09:59 Cloudy 49 9.4 42 5.6 77 77 SE 6 9 30.08 1019 10 16 0.00 0.00
10:59 am 10:59 Cloudy 50 10 41 5 71 71 SE 6 9 30.04 1017 10 16 0.00 0.00
11:59 am 11:59 Cloudy 51 10.6 43 6.1 74 74 ESE 6 9 30.01 1016 10 16 0.00 0.00
12:59 pm 12:59 Cloudy with Light Rain 51 10.6 44 6.7 77 77 SSE 6 9 29.99 1016 8 13 0.00 0.03
1:59 pm 13:59 Cloudy with Light Rain 51 10.6 46 7.8 83 83 SE 6 9 29.97 1015 3 5 0.02 0.51
2:59 pm 14:59 Cloudy with Light Rain 51 10.6 47 8.3 86 86 Calm 29.95 1014 3 5 0.02 0.51
3:07 pm 15:07 Cloudy with Light Rain 51 10.6 47 8.3 86 86 ESE 5 7 29.94 1014 3 5 0.00 0.03
3:19 pm 15:19 Cloudy with Light Rain 50 10 47 8.3 89 89 E 3 6 29.94 1014 3 5 0.01 0.25
3:41 pm 15:41 Cloudy with Light Rain 50 10 47 8.3 89 89 ESE 8 13 29.91 1013 3 5 0.02 0.51
3:59 pm 15:59 Cloudy with Light Rain 50 10 48 8.9 93 93 ESE 8 13 29.90 1012 3 5 0.03 0.76
4:45 pm 16:45 Cloudy with Light Rain 50 10 48 8.9 93 93 NE 7 11 29.91 1013 5 8 0.01 0.25
4:55 pm 16:55 Cloudy with Light Rain 50 10 48 9 94 94 ESE 7 11 29.88 1012 5 8 0.01 0.25
4:59 pm 16:59 Cloudy with Mist and Fog 50 10 48 8.9 93 93 ESE 8 13 29.86 1011 5 8 0.01 0.25
5:34 pm 17:34 Cloudy with Mist and Fog 50 10 48 8.9 93 93 NNE 5 7 29.88 1012 6 10 0.00 0.00
5:47 pm 17:47 Cloudy with Mist and Fog 49 9.4 48 8.9 97 97 NE 6 9 29.85 1011 4 6 0.00 0.00
5:59 pm 17:59 Mostly Cloudy with Mist and Fog 49 9.4 48 8.9 97 97 NE 3 6 29.86 1011 5 8 0.00 0.00
6:14 pm 18:14 Cloudy with Mist and Fog 49 9.4 48 8.9 97 97 Calm 29.85 1011 5 8 0.00 0.00
6:32 pm 18:32 Cloudy with Mist and Fog 50 10 48 8.9 93 93 NE 6 9 29.85 1011 4 6 0.00 0.00
6:49 pm 18:49 Cloudy with Light Rain 50 10 48 8.9 93 93 VRB 3 6 29.85 1011 4 6 0.01 0.25
6:59 pm 18:59 Cloudy with Light Rain 50 10 48 8.9 93 93 E 6 9 29.84 1011 5 8 0.01 0.25
7:07 pm 19:07 Cloudy with Light Rain 50 10 49 9.4 96 96 Calm 29.85 1011 4 6 0.01 0.25
7:20 pm 19:20 Cloudy with Light Rain 50 10 49 9.4 96 96 ESE 3 6 29.83 1010 4 6 0.02 0.51
7:30 pm 19:30 Cloudy with Light Rain 50 10 48 8.9 93 93 E 5 7 29.83 1010 3 5 0.02 0.51
7:40 pm 19:40 Cloudy with Light Rain 50 10 49 9.4 96 96 Calm 29.80 1009 4 6 0.03 0.76
7:51 pm 19:51 Cloudy with Light Rain 51 10.6 49 9.4 92 92 SE 5 7 29.80 1009 3 5 0.03 0.76
7:59 pm 19:59 Cloudy with Light Rain 51 10.6 50 10 96 96 SE 6 9 29.79 1009 4 6 0.04 1.02
8:59 pm 20:59 Cloudy with Mist and Fog 54 12.2 52 11.1 93 93 SE 9 15 29.73 1007 5 8 0.00 0.03
9:50 pm 21:50 Cloudy 58 14.4 56 13.3 93 93 SSE 12 19 29.68 1005 8 13 0.00 0.00
9:59 pm 21:59 Cloudy 58 14.4 57 13.9 97 97 SE 13 20 29.67 1005 8 13 0.00 0.00
10:59 pm 22:59 Cloudy 62 16.7 59 15 90 90 SE 10 17 29.60 1003 10 16 0.01 0.25
11:59 pm 23:59 Cloudy 63 17.2 59 15 87 87 SE 9 15 29.59 1002 10 16 0.00 0.00

Powered by AerisWeather